IN3HNH-13 Weather Reports


time (UTC)temp
C
wind
direction
speed
KPH
gust
KPH
rain 1hr
cm
rain 24hr
cm
rain mn
cm
humidity
%
barometer
mb
20260507203021 16 187 0.0 0.0 0.00 0.05 0.03 63 1013.3
20260507201555 16 187 0.0 0.0 0.00 0.05 0.03 67 1013.1
20260507200014 16 187 0.0 0.0 0.00 0.05 0.03 68 1012.9
20260507194547 16 187 0.0 0.0 0.00 0.05 0.03 65 1012.6
20260507193005 16 187 0.0 0.0 0.00 0.05 0.03 64 1012.3
20260507191537 16 187 0.0 0.0 0.00 0.05 0.03 63 1012.0
20260507190006 17 187 0.0 0.0 0.00 0.05 0.03 61 1011.7
20260507184542 17 187 0.0 0.0 0.00 0.05 0.03 59 1011.4
20260507183017 17 187 0.0 0.0 0.00 0.05 0.03 58 1011.2
20260507181549 18 187 0.0 0.0 0.00 0.05 0.03 54 1010.9
20260507180120 18 187 0.0 0.0 0.00 0.05 0.03 51 1010.7
20260507174617 18 187 0.0 1.6 0.00 0.05 0.03 50 1010.5
20260507173024 19 187 0.0 0.0 0.00 0.05 0.03 48 1010.4
20260507171609 19 187 0.0 3.2 0.00 0.05 0.03 47 1010.3
20260507170025 19 187 0.0 4.8 0.00 0.05 0.03 45 1010.1
20260507164502 20 187 0.0 6.4 0.00 0.05 0.03 44 1010.0
20260507163033 20 187 0.0 6.4 0.00 0.05 0.03 45 1009.9
20260507161503 20 187 0.0 4.8 0.00 0.05 0.03 44 1009.9
20260507160055 20 187 0.0 0.0 0.00 0.05 0.03 44 1009.8
20260507154508 20 187 0.0 0.0 0.00 0.05 0.03 46 1009.9
20260507153037 20 187 1.6 4.8 0.00 0.05 0.03 46 1009.8
20260507151508 20 187 1.6 16.1 0.00 0.05 0.03 46 1009.7
20260507150039 20 187 3.2 11.3 0.00 0.05 0.03 46 1009.9
20260507144509 20 192 3.2 12.9 0.00 0.05 0.03 46 1010.0
20260507143039 20 192 4.8 16.1 0.00 0.05 0.03 47 1010.1
20260507141515 20 179 8.0 17.7 0.00 0.05 0.03 47 1010.0
20260507140057 20 167 0.0 22.5 0.00 0.05 0.03 49 1010.0
20260507134519 20 168 3.2 14.5 0.00 0.05 0.03 50 1010.0
20260507133004 20 163 11.3 19.3 0.00 0.05 0.03 52 1010.0
20260507131605 20 163 1.6 9.7 0.00 0.05 0.03 50 1010.1
20260507130007 20 163 3.2 11.3 0.00 0.05 0.03 50 1010.1
20260507124555 20 163 1.6 9.7 0.00 0.08 0.03 52 1010.4
20260507123016 20 163 0.0 11.3 0.00 0.08 0.03 50 1010.5
20260507121550 20 163 0.0 11.3 0.00 0.08 0.03 55 1010.5
20260507120030 20 163 4.8 9.7 0.00 0.08 0.03 52 1010.4
20260507114551 19 163 0.0 9.7 0.00 0.10 0.03 54 1010.3
20260507113054 19 163 1.6 11.3 0.00 0.10 0.03 54 1010.5
20260507111553 18 163 4.8 11.3 0.00 0.10 0.03 56 1010.6
20260507110023 18 163 8.0 14.5 0.00 0.10 0.03 56 1010.8
20260507104612 18 163 0.0 4.8 0.00 0.18 0.03 55 1011.0
20260507103033 18 163 0.0 9.7 0.00 0.18 0.03 55 1011.2
20260507101530 17 163 0.0 0.0 0.00 0.18 0.03 60 1011.4
20260507100027 17 163 0.0 3.2 0.00 0.18 0.03 62 1011.6
20260507094547 16 163 1.6 8.0 0.00 0.20 0.03 66 1011.8
20260507093028 16 163 0.0 8.0 0.00 0.20 0.03 64 1012.0
20260507090057 16 163 0.0 8.0 0.00 0.20 0.03 67 1012.1
20260507084548 16 163 0.0 3.2 0.00 0.20 0.03 67 1012.1
20260507083022 15 163 0.0 0.0 0.00 0.20 0.03 70 1012.2
20260507081555 15 163 0.0 0.0 0.00 0.20 0.03 74 1012.3
20260507080026 15 163 0.0 0.0 0.00 0.20 0.03 76 1012.5
20260507074606 13 163 0.0 1.6 0.00 0.23 0.03 78 1012.5
20260507073032 13 163 0.0 0.0 0.00 0.23 0.03 84 1012.6
20260507071518 12 163 0.0 0.0 0.00 0.23 0.03 84 1012.6
20260507070107 12 163 0.0 0.0 0.00 0.23 0.03 85 1012.6
20260507064545 12 163 0.0 0.0 0.00 0.23 0.03 86 1012.5
20260507063028 11 162 0.0 0.0 0.00 0.23 0.03 88 1012.5
20260507061518 12 162 0.0 0.0 0.00 0.23 0.03 89 1012.4
20260507060008 11 162 0.0 0.0 0.00 0.23 0.03 89 1012.1
20260507054559 11 162 0.0 0.0 0.00 0.23 0.03 90 1012.0
20260507053047 11 162 0.0 0.0 0.00 0.23 0.03 91 1012.1
20260507051536 11 162 0.0 0.0 0.00 0.23 0.03 90 1012.0
20260507050039 11 163 0.0 0.0 0.00 0.23 0.03 90 1011.8
20260507044559 11 162 0.0 0.0 0.00 0.25 0.03 91 1011.6
20260507043042 11 162 0.0 0.0 0.00 0.25 0.03 91 1011.5
20260507041532 11 162 0.0 0.0 0.00 0.25 0.03 91 1011.3
20260507040023 11 163 0.0 0.0 0.00 0.25 0.03 90 1011.0
20260507034505 11 162 0.0 0.0 0.00 0.25 0.03 93 1011.1
20260507033051 11 163 0.0 0.0 0.00 0.25 0.03 94 1011.2
20260507031538 11 163 0.0 0.0 0.00 0.25 0.03 94 1011.3
20260507030026 11 162 0.0 0.0 0.00 0.25 0.03 93 1011.1
20260507024508 11 162 0.0 0.0 0.00 0.25 0.03 93 1011.2
20260507023045 11 162 0.0 0.0 0.00 0.25 0.03 93 1011.1
20260507021545 11 162 0.0 0.0 0.00 0.25 0.03 93 1011.1
20260507020015 11 162 0.0 0.0 0.00 0.25 0.03 93 1011.1
20260507014548 11 162 0.0 0.0 0.00 0.25 0.03 93 1011.0
20260507013034 11 162 0.0 0.0 0.00 0.25 0.03 93 1011.1
20260507011604 11 162 0.0 0.0 0.00 0.25 0.03 93 1011.0
20260507010048 11 162 0.0 0.0 0.00 0.25 0.03 93 1011.0
20260507004522 11 162 0.0 0.0 0.00 0.25 0.03 93 1010.9
20260507003038 11 162 0.0 0.0 0.00 0.25 0.03 93 1010.8
20260507001511 11 162 0.0 0.0 0.00 0.25 0.03 93 1010.8
20260507000049 11 162 0.0 0.0 0.00 0.25 0.03 93 1010.8
20260506234528 11 162 0.0 0.0 0.00 0.25 0.03 93 1010.9
20260506233008 10 162 0.0 0.0 0.00 0.25 0.03 93 1010.9
20260506231547 11 162 0.0 0.0 0.03 0.25 0.03 93 1010.8
20260506230020 11 162 0.0 0.0 0.03 0.25 0.03 94 1010.7
20260506224548 11 162 0.0 0.0 0.03 0.25 0.03 93 1010.8
20260506223019 11 162 0.0 0.0 0.03 0.25 0.03 93 1010.9
20260506221553 11 163 0.0 0.0 0.00 0.23 0.00 93 1010.7
20260506220035 11 162 0.0 0.0 0.00 0.23 0.00 93 1010.7
20260506214509 11 162 0.0 0.0 0.00 0.23 0.23 93 1010.6
20260506213039 12 162 0.0 0.0 0.00 0.23 0.23 93 1010.6
20260506211511 12 162 0.0 0.0 0.03 0.23 0.23 92 1010.4
20260506210044 12 162 0.0 0.0 0.03 0.23 0.23 92 1010.4
20260506204603 12 162 0.0 0.0 0.03 0.23 0.23 92 1010.3